Weather History for PAWG - February, 2014

Change the Weather History Date:

Sunday, February 16, 2014

  Actual Average Record
Temperature  
Mean Temperature 34 °F -  
Max Temperature 37 °F 38 °F 50 °F (1973)
Min Temperature 30 °F 27 °F 6 °F (1956)
Degree Days  
Heating Degree Days 32    
Moisture  
Dew Point 26 °F    
Average Humidity 72    
Maximum Humidity 86    
Minimum Humidity 52    
Precipitation  
Precipitation 0.14 in - - ()
Sea Level Pressure  
Sea Level Pressure 29.22 in    
Wind  
Wind Speed 7 mph (SE)    
Max Wind Speed 15 mph    
Max Gust Speed 17 mph    
Visibility 9 miles    
Events      
Averages and records for this station are not official NWS values.
T = Trace of Precipitation, MM = Missing Value Source: NWS Daily Summary

Daily Weather History Graph

Daily Weather History Graph

Search for Another Location

Airport or City:

Trip Planner

Search our weather history database for the weather conditions in past years. The results will help you decide how hot, cold, wet, or windy it might be!

Date:

Astronomy

Feb. 16, 2014 Rise Set
Actual Time 7:13 AM AKST 4:54 PM AKST
Civil Twilight 6:34 AM AKST 5:33 PM AKST
Nautical Twilight 5:50 AM AKST 6:17 PM AKST
Astronomical Twilight 5:06 AM AKST 7:01 PM AKST
Moon 7:30 PM AKST (2/16) 7:19 AM AKST (2/16)
Length of Visible Light 10h 59m
Length of Day
9h 41m
Full, 97% of the Moon is Illuminated
Feb 16
Full
Feb 22
Last Quarter
Feb 28
New
Mar 8
First Quarter
Mar 16
Full

Hourly Weather History & Observations

Time (AKST) Temp. Windchill Dew Point Humidity Pressure Visibility Wind Dir Wind Speed Gust Speed Precip Events Conditions
12:16 AM 33.8 °F 29.6 °F 26.6 °F 75% 29.06 in 4.0 mi SSW 4.6 mph - N/A   Overcast
12:36 AM 33.8 °F 27.0 °F 26.6 °F 75% 29.08 in 2.0 mi SSW 8.1 mph - N/A   Overcast
12:56 AM 32.0 °F 24.8 °F 26.6 °F 80% 29.10 in 2.5 mi SSW 8.1 mph - N/A   Overcast
1:16 AM 32.0 °F 26.4 °F 26.6 °F 80% 29.11 in 3.0 mi SW 5.8 mph - N/A   Overcast
1:36 AM 32.0 °F 28.7 °F 26.6 °F 80% 29.14 in 2.5 mi WNW 3.5 mph - 0.01 in   Overcast
1:56 AM 32.0 °F 24.2 °F 26.6 °F 80% 29.15 in 3.0 mi West 9.2 mph - 0.01 in   Overcast
2:16 AM 30.2 °F 20.8 °F 26.6 °F 86% 29.17 in 1.0 mi WNW 11.5 mph - N/A   Overcast
2:36 AM 30.2 °F 25.4 °F 24.8 °F 80% 29.18 in 1.8 mi West 4.6 mph 16.1 mph N/A   Overcast
2:56 AM 30.2 °F 26.7 °F 24.8 °F 80% 29.19 in 5.0 mi SSW 3.5 mph - N/A   Overcast
3:16 AM 30.2 °F - 26.6 °F 86% 29.21 in 2.5 mi Calm Calm - N/A   Overcast
3:36 AM 30.2 °F - 24.8 °F 80% 29.22 in 2.0 mi Calm Calm - N/A   Overcast
3:56 AM 30.2 °F 26.7 °F 26.6 °F 86% 29.22 in 3.0 mi SSE 3.5 mph - N/A   Overcast
4:16 AM 30.2 °F 24.3 °F 26.6 °F 86% 29.23 in 6.0 mi ESE 5.8 mph - N/A   Overcast
4:36 AM 30.2 °F 23.4 °F 26.6 °F 86% 29.24 in 6.0 mi SSE 6.9 mph - N/A   Mostly Cloudy
4:56 AM 32.0 °F 24.8 °F 26.6 °F 80% 29.25 in 10.0 mi ESE 8.1 mph - N/A   Mostly Cloudy
5:16 AM 30.2 °F 25.4 °F 26.6 °F 86% 29.27 in 10.0 mi South 4.6 mph - N/A   Overcast
5:36 AM 32.0 °F 28.7 °F 24.8 °F 75% 29.27 in 10.0 mi SW 3.5 mph - N/A   Overcast
5:56 AM 32.0 °F 23.6 °F 26.6 °F 80% 29.27 in 10.0 mi East 10.4 mph - N/A   Mostly Cloudy
6:16 AM 32.0 °F 28.7 °F 24.8 °F 75% 29.29 in 10.0 mi SSW 3.5 mph - N/A   Mostly Cloudy
6:36 AM 32.0 °F 26.4 °F 24.8 °F 75% 29.29 in 10.0 mi East 5.8 mph - N/A   Mostly Cloudy
6:56 AM 32.0 °F 24.8 °F 24.8 °F 75% 29.30 in 10.0 mi ESE 8.1 mph - N/A   Mostly Cloudy
7:16 AM 33.8 °F 23.9 °F 24.8 °F 70% 29.30 in 10.0 mi East 15.0 mph - N/A   Mostly Cloudy
7:36 AM 33.8 °F 28.6 °F 24.8 °F 70% 29.32 in 10.0 mi SE 5.8 mph - N/A   Mostly Cloudy
7:56 AM 33.8 °F 27.7 °F 24.8 °F 70% 29.32 in 10.0 mi SE 6.9 mph - N/A   Mostly Cloudy
8:16 AM 33.8 °F 25.3 °F 24.8 °F 70% 29.32 in 10.0 mi ESE 11.5 mph 17.3 mph N/A   Mostly Cloudy
8:36 AM 33.8 °F 24.8 °F 24.8 °F 70% 29.33 in 10.0 mi East 12.7 mph - 0.01 in   Mostly Cloudy
8:56 AM 33.8 °F 25.8 °F 26.6 °F 75% 29.33 in 10.0 mi East 10.4 mph - 0.02 in   Mostly Cloudy
9:16 AM 33.8 °F 25.3 °F 26.6 °F 75% 29.33 in 10.0 mi East 11.5 mph - N/A   Mostly Cloudy
9:36 AM 33.8 °F 27.0 °F 24.8 °F 70% 29.34 in 10.0 mi SE 8.1 mph - N/A   Mostly Cloudy
9:56 AM 33.8 °F 26.4 °F 24.8 °F 70% 29.34 in 10.0 mi ESE 9.2 mph - N/A   Mostly Cloudy
10:16 AM 35.6 °F 28.0 °F 26.6 °F 70% 29.33 in 10.0 mi ESE 10.4 mph - N/A   Mostly Cloudy
10:36 AM 35.6 °F 27.5 °F 26.6 °F 70% 29.33 in 10.0 mi ESE 11.5 mph - N/A   Mostly Cloudy
10:56 AM 35.6 °F 28.0 °F 26.6 °F 70% 29.33 in 10.0 mi East 10.4 mph - N/A   Scattered Clouds
11:16 AM 35.6 °F 27.5 °F 26.6 °F 70% 29.32 in 10.0 mi East 11.5 mph - 0.01 in   Scattered Clouds
11:36 AM 35.6 °F 29.2 °F 26.6 °F 70% 29.32 in 10.0 mi East 8.1 mph - 0.03 in   Scattered Clouds
11:56 AM 35.6 °F 29.9 °F 26.6 °F 70% 29.32 in 10.0 mi East 6.9 mph - 0.05 in   Scattered Clouds
12:16 PM 35.6 °F 29.2 °F 26.6 °F 70% 29.31 in 10.0 mi East 8.1 mph - 0.01 in   Scattered Clouds
12:36 PM 37.4 °F 32.1 °F 26.6 °F 65% 29.30 in 10.0 mi ESE 6.9 mph - 0.02 in   Scattered Clouds
12:56 PM 37.4 °F 30.8 °F 24.8 °F 60% 29.29 in 10.0 mi East 9.2 mph - 0.03 in   Mostly Cloudy
1:16 PM 37.4 °F 30.3 °F 26.6 °F 65% 29.28 in 10.0 mi East 10.4 mph - 0.01 in   Mostly Cloudy
1:36 PM 37.4 °F 30.8 °F 24.8 °F 60% 29.27 in 10.0 mi East 9.2 mph - 0.01 in   Mostly Cloudy
1:56 PM 37.4 °F 30.8 °F 26.6 °F 65% 29.26 in 10.0 mi East 9.2 mph - 0.02 in   Overcast
2:16 PM 37.4 °F 30.8 °F 24.8 °F 60% 29.25 in 10.0 mi East 9.2 mph - N/A   Overcast
2:36 PM 37.4 °F 31.4 °F 24.8 °F 60% 29.24 in 10.0 mi East 8.1 mph - N/A   Overcast
2:56 PM 37.4 °F 30.3 °F 24.8 °F 60% 29.21 in 10.0 mi ENE 10.4 mph - 0.01 in   Mostly Cloudy
3:16 PM 37.4 °F 30.8 °F 23.0 °F 56% 29.19 in 10.0 mi East 9.2 mph - N/A   Mostly Cloudy
3:36 PM 35.6 °F 29.2 °F 24.8 °F 65% 29.18 in 10.0 mi East 8.1 mph - N/A   Mostly Cloudy
3:56 PM 35.6 °F 30.7 °F 23.0 °F 60% 29.18 in 10.0 mi East 5.8 mph - N/A   Scattered Clouds
4:16 PM 37.4 °F 32.8 °F 21.2 °F 52% 29.17 in 10.0 mi SE 5.8 mph - N/A   Scattered Clouds
4:36 PM 35.6 °F 30.7 °F 23.0 °F 60% 29.16 in 10.0 mi SE 5.8 mph - N/A   Scattered Clouds
4:56 PM 35.6 °F 32.8 °F 24.8 °F 65% 29.16 in 10.0 mi South 3.5 mph - N/A   Overcast
5:16 PM 35.6 °F 31.7 °F 24.8 °F 65% 29.16 in 10.0 mi South 4.6 mph - N/A   Overcast
5:36 PM 33.8 °F - 26.6 °F 75% 29.16 in 10.0 mi Calm Calm - N/A   Overcast
5:56 PM 33.8 °F - 26.6 °F 75% 29.16 in 10.0 mi Calm Calm - N/A   Mostly Cloudy
6:16 PM 35.6 °F 32.8 °F 24.8 °F 65% 29.15 in 10.0 mi South 3.5 mph - N/A   Mostly Cloudy
6:36 PM 37.4 °F - 24.8 °F 60% 29.15 in 10.0 mi Calm Calm - N/A   Mostly Cloudy
6:56 PM 35.6 °F 32.8 °F 24.8 °F 65% 29.15 in 10.0 mi SE 3.5 mph - N/A   Overcast
7:16 PM 35.6 °F - 24.8 °F 65% 29.15 in 10.0 mi Calm Calm - N/A   Overcast
7:36 PM 33.8 °F 29.6 °F 26.6 °F 75% 29.15 in 10.0 mi South 4.6 mph - N/A   Overcast
7:56 PM 33.8 °F 30.8 °F 26.6 °F 75% 29.15 in 10.0 mi SSW 3.5 mph - N/A   Overcast
8:16 PM 33.8 °F - 26.6 °F 75% 29.15 in 10.0 mi Calm Calm - N/A   Overcast
8:36 PM 33.8 °F 25.8 °F 26.6 °F 75% 29.14 in 10.0 mi East 10.4 mph - N/A   Overcast
8:56 PM 35.6 °F 28.6 °F 26.6 °F 70% 29.14 in 10.0 mi East 9.2 mph - N/A   Overcast
9:16 PM 33.8 °F 25.8 °F 28.4 °F 81% 29.14 in 10.0 mi East 10.4 mph - N/A   Overcast
9:36 PM 33.8 °F 26.4 °F 28.4 °F 81% 29.14 in 10.0 mi ESE 9.2 mph - N/A   Overcast
9:56 PM 33.8 °F 26.4 °F 28.4 °F 81% 29.14 in 10.0 mi East 9.2 mph - N/A   Overcast
10:16 PM 33.8 °F 25.8 °F 28.4 °F 81% 29.13 in 10.0 mi East 10.4 mph - N/A   Overcast
10:36 PM 35.6 °F 27.1 °F 28.4 °F 75% 29.12 in 10.0 mi East 12.7 mph - N/A   Overcast
10:56 PM 35.6 °F 28.0 °F 28.4 °F 75% 29.12 in 10.0 mi East 10.4 mph - N/A   Overcast
11:16 PM 35.6 °F 28.6 °F 28.4 °F 75% 29.11 in 10.0 mi ENE 9.2 mph - N/A   Mostly Cloudy
11:36 PM 35.6 °F - 28.4 °F 75% 29.12 in 10.0 mi Calm Calm - N/A   Overcast
11:56 PM 35.6 °F 32.8 °F 26.6 °F 70% 29.11 in 10.0 mi WSW 3.5 mph - N/A   Overcast